Regional Weather Roundup
Issued by NWS Kansas City/Pleasant Hill, MO

Home | Current Version | Previous Version | Graphics & Text | Print | Product List | Glossary Off
Versions: 1 2 3 4 5 6 7 8 9 10 11 12 13 14 15 16 17 18 19 20 21 22 23 24 25 26 27 28

000
ASUS43 KEAX 241410
RWREAX

WEATHER ROUNDUP FOR EASTERN KANSAS AND NORTHWEST MISSOURI
NATIONAL WEATHER SERVICE KANSAS CITY/PLEASANT HILL MO
900 AM CDT SUN SEP 24 2017

KSZ040-057-103>105-MOZ028-029-037-043-241500-
...KANSAS CITY METROPOLITAN AREA...

CITY           SKY/WX    TMP DP  RH WIND       PRES   REMARKS
K.C. INTL      MOSUNNY   76  68  76 S12       29.98R
K.C. DOWNTOWN  SUNNY     79  67  66 S6        29.97R
LEES SUMMIT    SUNNY     74  67  78 S12       29.99S
OLATHE - IXD   SUNNY     74  66  76 S13       29.99R
OLATHE - OJC   SUNNY     71  67  87 S8        29.99R
LAWRENCE       SUNNY     74  68  81 SE6       29.96S

$$

MOZ001>008-011>017-020>025-030>033-038>040-044>046-053-054-241500-
...NORTHERN AND CENTRAL MISSOURI...

CITY           SKY/WX    TMP DP  RH WIND       PRES   REMARKS
ST. JOSEPH     SUNNY     76  68  76 S6        29.97R
MOSBY          SUNNY     72  66  83 SE5       29.99R
WARRENSBURG    SUNNY     72  64  78 SE7       30.00R
WHITEMAN AFB   SUNNY     74  74 100 S7        29.99S
CLINTON        SUNNY     75  68  78 SE6       30.01R
SEDALIA        SUNNY     76  69  79 SE8       30.03R
WARSAW         NOT AVBL
CHILLICOTHE      N/A     74  67  78 SE5       30.01S
KIRKSVILLE     SUNNY     74  65  73 S8        30.04S

$$

MOZ041-047>049-056>058-063>065-088>090-097-241500-
...EASTERN AND SOUTHERN MISSOURI...

CITY           SKY/WX    TMP DP  RH WIND       PRES   REMARKS
ST. LOUIS INTL SUNNY     78  67  68 SE7       30.07R
SPIRIT OF STL  SUNNY     75  69  81 CALM      30.05R
COLUMBIA       SUNNY     75  67  76 SE8       30.04S
JEFFERSON CITY SUNNY     72  65  78 SE7       30.03S
ROLLA          SUNNY     75  66  73 S7        30.07R
OSAGE BEACH    SUNNY     72  66  81 SE7       30.05R
SPRINGFIELD    SUNNY     75  67  76 SE10      30.02S
BRANSON        SUNNY     73  66  78 SE3       30.04S
JOPLIN         SUNNY     75  68  78 SE7       30.00R
WEST PLAINS    SUNNY     75  67  76 VRB3      30.07S

$$

IAZ060-094-KSZ022-034>040-054-083-096-NEZ052-066-093-241500-
...KANSAS...SOUTHEAST NEBRASKA AND IOWA...

CITY           SKY/WX    TMP DP  RH WIND       PRES   REMARKS
TOPEKA         SUNNY     75  67  76 S8        29.95S
MANHATTAN      SUNNY     77  65  66 S8        29.93R
EMPORIA        PTSUNNY   73  64  73 S14       29.95R
CHANUTE        SUNNY     74  67  78 SE9       29.97S
WICHITA        PTSUNNY   75  67  76 S13       29.93R
OMAHA          CLOUDY    75  65  70 SE12      29.92S
LINCOLN        MOSUNNY   74  63  68 S12       29.91S
FALLS CITY     SUNNY     72  66  81 S9        29.94R
LAMONI         SUNNY     72  65  78 S8        29.99S
DES MOINES     MOSUNNY   73  64  73 S10       29.97S

$$





USA.gov is the U.S. government's official web portal to all federal, state and local government web resources and services.